Regional Weather Roundup
Issued by NWS

Home | Current Version | Previous Version | Text Only | Print | Product List | Glossary On
Versions: 1 2 3 4 5 6 7 8 9 10 11 12 13 14 15 16 17 18 19 20 21 22 23 24 25 26 27 28 29 30 31 32 33 34 35 36 37 38 39 40 41 42 43 44 45 46 47 48 49 50
666
ASUS43 KMKX 191600
RWRWI

WISCONSIN REGIONAL WEATHER ROUNDUP
NATIONAL WEATHER SERVICE MILWAUKEE/SULLIVAN WI
1100 AM CDT THU APR 19 2018

NOTE: "FAIR" INDICATES FEW OR NO CLOUDS BELOW 12,000 FEET WITH NO
SIGNIFICANT WEATHER AND/OR OBSTRUCTIONS TO VISIBILITY.

WIZ001-002-006>008-014>016-023>028-191700-
NORTHWEST WISCONSIN

CITY           SKY/WX    TMP DP  RH WIND       PRES   REMARKS
SUPERIOR ARPT  FAIR      47  18  31 S3        30.43R
ASHLAND        FAIR      43  14  31 CALM      30.42R
HAYWARD        FAIR      45  17  32 N8        30.41R
SIREN          FAIR      45  14  29 NW9       30.43R
CUMBERLAND     FAIR      39  12  33 N10       30.42R WCI  32
RICE LAKE      FAIR      41  15  34 NW5       30.44R
CHETEK         FAIR      41  17  38 NW7       30.42R
LADYSMITH      FAIR      43  17  35 NW9       30.41R
EAU CLAIRE     FAIR      40  20  44 NW5       30.42R
MENOMONIE      FAIR      42  17  35 W7        30.44R
NEW RICHMOND   FAIR      40  18  40 NW5       30.45R
OSCEOLA        FAIR      42  16  35 CALM      30.48S
$$

WIZ003>005-009-010-017-018-191700-
NORTH CENTRAL WISCONSIN

CITY           SKY/WX    TMP DP  RH WIND       PRES   REMARKS
MANITOWISH WTR FAIR      42  17  37 N3        30.35R
ARBOR VITAE    FAIR      44  15  30 NE8G16    30.34R
WOODRUFF       FAIR      44  15  30 NE8G16    30.34R
RHINELANDER    FAIR      45  16  31 MISG      30.34R
EAGLE RIVER    FAIR      43  10  26 N12G17    30.33R
LAND O LAKES   FAIR      42  13  30 N7        30.36R
PHILLIPS       FAIR      42  18  37 N5        30.36S
TOMAHAWK       FAIR      43  14  30 N7        30.35S
MEDFORD        FAIR      40  18  41 N6        30.36R
MERRILL          N/A     44  17  34 NE9G17    30.35R
$$

WIZ029-030-035-036-043>047-191700-
CENTRAL WISCONSIN

CITY           SKY/WX    TMP DP  RH WIND       PRES   REMARKS
WAUSAU         FAIR      44  16  32 N9        30.34R
MOSINEE        SUNNY     41  19  42 N5        30.36R
MARSHFIELD     FAIR      38  21  50 NW10      30.36R WCI  31
STEVENS POINT  FAIR      41  17  37 N7        30.35R
WAUPACA        FAIR      47  17  29 W5        30.35R
WAUTOMA        FAIR      41  21  44 W9        30.36R
WISC RAPIDS    FAIR      41  19  41 NW7       30.38R
CAMP DOUGLAS   MOSUNNY   39  27  60 NW7       30.39R WCI  34
$$

WIZ011>013-019>022-031-037>040-048>050-191700-
NORTHEAST WISCONSIN

CITY           SKY/WX    TMP DP  RH WIND       PRES   REMARKS
ANTIGO         FAIR      39  20  45 N6        30.32R
SHAWANO        FAIR      48  17  28 N10       30.31S
OCONTO         FAIR      42  17  36 N8        30.31R
STURGEON BAY   FAIR      40  21  46 NW9       30.31R WCI  34
GREEN BAY      FAIR      43  22  43 NW9       30.32R
MANITOWOC      FAIR      39  20  46 N15       30.32R WCI  31
APPLETON       SUNNY     39  16  38 NW7       30.31R WCI  34
CLINTONVILLE   FAIR      46  14  28 N8        30.32S
OSHKOSH        FAIR      39  22  50 W5        30.34R
$$

WIZ032>034-041-042-053>061-191700-
SOUTHWEST WISCONSIN

CITY           SKY/WX    TMP DP  RH WIND       PRES   REMARKS
LA CROSSE      FAIR      38  28  67 NW7       30.44R WCI  33
SPARTA         FAIR      36  30  79 W6        30.42R WCI  31
VIROQUA        FAIR      36  28  71 NW5       30.39R WCI  32
BOSCOBEL       FAIR      39  30  70 S3        30.42R
PRAIRIE DU CHI FAIR      37  27  66 W5        30.42S WCI  34
PLATTEVILLE    FAIR      35  28  74 N6        30.39R WCI  30
$$

WIZ056-057-062-063-064-067-068-191700-
SOUTH CENTRAL WISCONSIN

CITY           SKY/WX    TMP DP  RH WIND       PRES   REMARKS
REEDSBURG      FAIR      37  28  68 W7        30.38R WCI  32
BARABOO/DELLS  FAIR      40  24  53 W7        30.38R
LONE ROCK      FAIR      36  28  73 SW5       30.41R WCI  32
MINERAL POINT  FAIR      37  27  65 NW6       30.38R WCI  33
MADISON        FAIR      38  23  55 NW9       30.37R WCI  31
MIDDLETON      FAIR      40  24  53 NW6       30.38R
WATERTOWN      FAIR      35  24  63 NW8       30.34R WCI  29
MONROE         FAIR      37  25  60 N7        30.37R WCI  32
JANESVILLE     SUNNY     39  27  60 NW8       30.36R WCI  34
$$

WIZ051-052-058>065-066-070>072-191700-
SOUTHEAST WISCONSIN

CITY           SKY/WX    TMP DP  RH WIND       PRES   REMARKS
MILWAUKEE      FAIR      41  24  51 NW12      30.33R
WAUKESHA       SUNNY     36  21  55 NW10      30.34R WCI  28
MILWAUKEE/TIMM SUNNY     39  21  48 NW9       30.33R WCI  33
RACINE         FAIR      40  23  50 N14       30.34R WCI  32
BURLINGTON     FAIR      38  23  53 NW8       30.34R WCI  33
KENOSHA        FAIR      40  26  57 NW8       30.33R WCI  34
FOND DU LAC    FAIR      37  20  50 NW7       30.35R WCI  32
SHEBOYGAN      FAIR      40  22  48 N12       30.31R WCI  33
WEST BEND      FAIR      37  25  60 NW9       30.32R WCI  31
JUNEAU         FAIR      33  22  61 NW3       30.35R
$$

LSZ147-162-191700-
LAKE SUPERIOR

STATION/POSITION TIME  TEMP    WIND        PRES    WAVE
                       AIR SEA DIR/SP/G            HT/PER
                 (UTC) (F)     (DEG/KT/KT) (MB)    (FT/S)
DEVILS ISLAND    1500   35     250/  7/  8 1030.7R
SAXON HARBOR     1540   42      CALM  /  1 1029.8R
$$

LMZ867-665-643>646-191700-
LAKE MICHIGAN

STATION/POSITION TIME  TEMP    WIND        PRES    WAVE
                       AIR SEA DIR/SP/G            HT/PER
                 (UTC) (F)     (DEG/KT/KT) (MB)    (FT/S)
NORTHPORT PIER   1540   35                 1025.4R
KEWAUNEE LAKESHO 1524   39     340/  7/ 10 1025.2
PORT WASHINGTON  1540   41     320/  7/ 10 1027.8R
MILWAUKEE LAKESH 1530   38     320/  7/  9   N/A
KENOSHA   LAKESH 1500   38                 1026.4
$$

TC  - TEMPERATURE IN CELSIUS
VSB - VISIBILITY IN STATUTE MILES
WCI - WIND CHILL INDEX
HX  - HEAT INDEX





USA.gov is the U.S. government's official web portal to all federal, state and local government web resources and services.